OBJECT E, 67750

Orbit data source: Space-Track

You're viewing an Uncataloged Satellite

Recently launched and/or uncataloged satellites may have evolving metadata. Metadata may include but not limited to: Owner, Maufacturer, Bus, Motor, and Mission.

OBJECT E, 67750 is a Chinese satellite in SSO that was launched on Thu, 12 Feb 2026 UTC via a JIELONG-3 launch vehicle from the South China Sea Launch Area (SCSLA). Unknown objects in Earth's orbit typically refer to objects detected orbiting the Earth but have not yet been identified or cataloged. These objects could be anything from previously untracked satellites, spent rocket stages, debris from satellite collisions, or even natural meteoroids temporarily captured by Earth's gravity.

Loading next visibility...
Identifier
67750, 2026-027E
Orbit
SSO
Country
Flag of CNCN / PRC
Related business
None
Manufacturer
Unknown
Mission
Operational Commercial Imaging
Bus & Motor
Unknown
Mass
Unknown
Launch date (UTC)
2026-02-12 (4 months ago)
Launch vehicle
JIELONG-3
Launch site
South China Sea Launch Area (SCSLA)
Object type
Unknown
Shape & HBR
Box + 1 Pan, 0.9 m
Radar Cross Section
0.445 m², Medium (>0.1 m² and < 1m²)

Expand to show TLE details & history
Last TLE update: 7 hours ago

TLE from 7 hours ago
0 OBJECT E
1 67750U 26027E   26164.81523455  .00006937  00000-0  32944-3 0  9994
2 67750  97.5072 293.1158 0008460 231.5873 128.4603 15.19526471 18456
Epoch: 2026-06-13T19:33Z
TLE epoch observation values (Epoch: 2026-06-13T19:33:56.265Z)
Latitude
0.00004°
Longitude
97.50644°
Altitude
513.984 km
Speed
7.605 km/s
True Right ascension
19h 32m 27s
True Declination
0° 00' 00"
Sunlit
Object was in full shadow at epoch
Visualization orbit readout
Latitude
Unknown
Longitude
Unknown
Altitude
Unknown
Speed
Unknown
Apparent Right ascension
Unknown
Apparent Declination
Unknown
Sunlit
N/A
Visualization observer readout
Local Sidereal Time
13:01:04
Azimuth
Unknown
Elevation
Unknown
Doppler factor
Unknown
Orbital elements
Apogee altitude
510.064 km
Perigee altitude
498.419 km
Semi-major axis
6,882.379 km
Eccentricity
0.00085
Inclination
97.5072°
RAAN
293.1158°
Arg. of periapsis
231.5873°
True anomaly
128.53616°
Mean anomaly
128.4603°
Eccentric anomaly
128.49824°
Mean motion
3.80133 °/min
Orbital period
94.7 mins
BSTAR
0.00032944
Loading maneuver chart data...
Computing Atmospheric mass density...
Loading historical data...
Loading historical data...
Loading historical data...
Loading historical data...
Loading historical data...
Loading historical data...
Loading historical data...

Documentation

Showing up to 5 results
|